Location: Oshawa
(43.9000°N, 78.8670°W)
Time: 12:06:34
(UTC-05:00)

Courier 1B - All Passes

Search period start: 17 January 2017 00:00
Search period end: 27 January 2017 00:00
Orbit: 962 x 1209 km, 28.3° (Epoch: 16 January)

Date Brightness Start Highest point End Pass type
(mag) Time Alt. Az. Time Alt. Az. Time Alt. Az.
17 Jan - 16:33:48 10° SSW 16:38:55 20° SSE 16:43:52 10° SE daylight
17 Jan - 18:26:33 10° SW 18:32:03 23° S 18:37:18 10° SE visible
17 Jan - 20:21:02 10° SW 20:25:01 16° SSW 20:28:53 10° SSE visible
18 Jan - 15:40:34 10° SSW 15:45:20 18° SSE 15:49:58 10° SE daylight
18 Jan - 17:32:48 10° SW 17:38:27 23° S 17:43:54 10° SE visible
18 Jan - 19:26:46 10° SW 19:31:31 19° SSW 19:36:07 10° SSE visible
19 Jan - 14:47:37 10° SSW 14:51:44 15° SSE 14:55:47 10° SE daylight
19 Jan - 16:39:08 10° SW 16:44:51 23° S 16:50:22 10° SE daylight
19 Jan - 18:32:41 10° SW 18:37:59 21° S 18:43:05 10° SE visible
19 Jan - 20:28:57 10° SW 20:30:50 11° SSW 20:32:43 10° S visible
20 Jan - 13:55:12 10° S 13:58:09 12° SSE 14:01:05 10° SE daylight
20 Jan - 15:45:36 10° SW 15:51:13 22° S 15:56:40 10° SE daylight
20 Jan - 17:38:44 10° SW 17:44:24 23° S 17:49:52 10° SE visible
20 Jan - 19:33:42 10° SW 19:37:23 14° SSW 19:40:58 10° S visible
21 Jan - 14:52:14 10° SSW 14:57:35 20° SSE 15:02:50 10° ESE daylight
21 Jan - 16:44:53 10° SW 16:50:47 24° S 16:56:29 10° SE daylight
21 Jan - 18:39:12 10° SW 18:43:52 18° SSW 18:48:23 10° SSE visible
22 Jan - 13:59:06 10° SSW 14:03:58 18° SSE 14:08:47 10° SE daylight
22 Jan - 15:51:10 10° SW 15:57:08 24° S 16:02:57 10° SE daylight
22 Jan - 17:45:01 10° WSW 17:50:18 20° SSW 17:55:26 10° SSE visible
23 Jan - 13:06:18 10° S 13:10:21 15° SSE 13:14:25 10° SE daylight
23 Jan - 14:57:34 10° SW 15:03:29 24° S 15:09:18 10° SE daylight
23 Jan - 16:50:58 10° WSW 16:56:42 23° S 17:02:16 10° SE daylight
23 Jan - 18:46:34 10° SW 18:49:40 13° SSW 18:52:43 10° S visible
24 Jan - 12:14:10 10° S 12:16:47 12° SSE 12:19:25 10° SE daylight
24 Jan - 14:04:08 10° SW 14:09:49 22° S 14:15:29 10° ESE daylight
24 Jan - 15:57:05 10° SW 16:03:04 24° S 16:08:54 10° SE daylight
24 Jan - 17:51:46 10° SW 17:56:08 16° SSW 18:00:25 10° SSE visible
25 Jan - 13:10:53 10° SSW 13:16:10 20° SSE 13:21:29 10° ESE daylight
25 Jan - 15:03:19 10° SW 15:09:24 25° S 15:15:23 10° SE daylight
25 Jan - 16:57:25 10° WSW 17:02:34 19° SSW 17:07:37 10° SSE daylight
26 Jan - 12:17:54 10° SSW 12:22:34 17° SSE 12:27:17 10° SE daylight
26 Jan - 14:09:41 10° SW 14:15:43 25° S 14:21:44 10° SE daylight
26 Jan - 16:03:19 10° WSW 16:08:57 22° SSW 16:14:29 10° SE daylight
26 Jan - 17:59:56 10° SW 18:01:54 11° SSW 18:03:52 10° S visible
